Location: Ansan
(43.6898°N, 0.7731°E)
Time: 13:43:32
(UTC+00:00)

Cosmos 1461 - Pass Details

Date: 15 May 2026
Orbit: 422 x 475 km, 65.0° (Epoch: 11 June)

Event Time Altitude Azimuth Distance (km) Brightness Sun altitude
Rises 19:46:00 0° 184° (S) 2,523 5.9 -5.6°
Maximum altitude 19:51:26 25° 115° (ESE) 1,004 3.6 -6.4°
Drops below altitude 10° 19:54:30 10° 59° (ENE) 1,655 5.0 -6.9°
Sets 19:56:53 0° 46° (NE) 2,532 6.1 -7.2°
